Location: Newark
(52.3500°N, 175.9667°E)
Time: 03:54:15
(UTC+00:00)

S-56A Canister/Altair - Pass Details

Date: 24 April 2021
Orbit: 631 x 2501 km, 38.9° (Epoch: 18 May)

Event Time Altitude Azimuth Distance (km) Brightness Sun altitude
Rises 09:30:30 0° 215° (SW) 5,265 11.7 -15.8°
Reaches altitude 10° 09:35:32 10° 200° (SSW) 3,897 10.8 -16.3°
Enters shadow 09:41:02 19° 167° (SSE) 2,814 9.9 -16.8°
